DLH4YF EDDF-LIMC

Flight info

Callsign DLH4YF
Flight time 0h 53m
Altitude 33000
Route ANEKI2L/18 ANEKI Y163 NATOR DCT DITON DCT BASGO Z424 RIXUV
Aircraft A321/M-SDE3FGHIRWY/LB1

Departure

Time 2026-05-06 19:16
Airport Frankfurt Main Airport (EDDF)

Arrival

Time 2026-05-06 20:10
Airport Milan Malpensa International Airport (LIMC)
Time Latitude Longitude Altitude Speed Heading
2026-05-06 18:32 50.04787 8.56766 363 ft 0 kts 114°
2026-05-06 19:03 50.04792 8.56747 356 ft 4 kts 91°
2026-05-06 19:04 50.04793 8.56712 357 ft 2 kts 112°
2026-05-06 19:04 50.04805 8.56692 362 ft 4 kts 171°
2026-05-06 19:04 50.04806 8.56689 362 ft 4 kts 186°
2026-05-06 19:04 50.04785 8.56675 362 ft 1 kts 202°
2026-05-06 19:09 50.04781 8.56673 361 ft 3 kts 202°
2026-05-06 19:09 50.04742 8.56628 365 ft 9 kts 229°
2026-05-06 19:09 50.04700 8.56544 361 ft 11 kts 232°
2026-05-06 19:10 50.04666 8.56432 360 ft 12 kts 250°
2026-05-06 19:10 50.04634 8.56299 356 ft 14 kts 249°
2026-05-06 19:10 50.04598 8.56150 363 ft 16 kts 249°
2026-05-06 19:10 50.04555 8.55988 362 ft 17 kts 232°
2026-05-06 19:11 50.04445 8.55918 360 ft 18 kts 197°
2026-05-06 19:11 50.04321 8.55942 360 ft 20 kts 160°
2026-05-06 19:11 50.04229 8.55899 358 ft 17 kts 244°
2026-05-06 19:11 50.04187 8.55722 357 ft 18 kts 250°
2026-05-06 19:12 50.04140 8.55525 357 ft 20 kts 250°
2026-05-06 19:12 50.04090 8.55316 356 ft 21 kts 250°
2026-05-06 19:12 50.04039 8.55105 353 ft 21 kts 249°
2026-05-06 19:12 50.03986 8.54883 354 ft 23 kts 250°
2026-05-06 19:13 50.03930 8.54642 353 ft 20 kts 249°
2026-05-06 19:13 50.03876 8.54426 350 ft 23 kts 249°
2026-05-06 19:13 50.03796 8.54212 356 ft 24 kts 248°
2026-05-06 19:13 50.03741 8.53976 350 ft 20 kts 250°
2026-05-06 19:14 50.03690 8.53761 352 ft 22 kts 250°
2026-05-06 19:14 50.03632 8.53533 340 ft 24 kts 248°
2026-05-06 19:14 50.03572 8.53285 335 ft 25 kts 250°
2026-05-06 19:14 50.03515 8.53047 336 ft 23 kts 250°
2026-05-06 19:15 50.03452 8.52803 335 ft 25 kts 247°
2026-05-06 19:15 50.03399 8.52617 332 ft 14 kts 226°
2026-05-06 19:15 50.03303 8.52595 332 ft 15 kts 180°
2026-05-06 19:15 50.03107 8.52596 336 ft 60 kts 180°
2026-05-06 19:16 50.02425 8.52603 332 ft 133 kts 180°
2026-05-06 19:16 50.01314 8.52620 460 ft 175 kts 182°
2026-05-06 19:16 50.00136 8.52661 1308 ft 169 kts 179°
2026-05-06 19:16 49.98933 8.52753 1868 ft 182 kts 179°
2026-05-06 19:17 49.97598 8.52863 2188 ft 203 kts 179°
2026-05-06 19:17 49.96121 8.52974 2455 ft 229 kts 179°
2026-05-06 19:17 49.94501 8.53085 3176 ft 233 kts 180°
2026-05-06 19:17 49.92883 8.53181 4072 ft 232 kts 181°
2026-05-06 19:18 49.91270 8.53276 4955 ft 232 kts 181°
2026-05-06 19:18 49.89655 8.53377 5779 ft 234 kts 181°
2026-05-06 19:18 49.88024 8.53483 6598 ft 235 kts 181°
2026-05-06 19:18 49.86376 8.53589 7315 ft 240 kts 181°
2026-05-06 19:19 49.84695 8.53698 8059 ft 243 kts 181°
2026-05-06 19:19 49.82997 8.53811 8825 ft 246 kts 180°
2026-05-06 19:19 49.81279 8.53926 9576 ft 249 kts 180°
2026-05-06 19:19 49.79561 8.54041 10255 ft 252 kts 180°
2026-05-06 19:20 49.77801 8.54100 10922 ft 255 kts 186°
2026-05-06 19:20 49.75960 8.53873 11180 ft 277 kts 187°
2026-05-06 19:20 49.73959 8.53603 11373 ft 300 kts 187°
2026-05-06 19:20 49.71799 8.53308 11524 ft 323 kts 187°
2026-05-06 19:21 49.69512 8.52997 11874 ft 336 kts 186°
2026-05-06 19:21 49.67166 8.52685 12495 ft 340 kts 186°
2026-05-06 19:21 49.64795 8.52375 13134 ft 345 kts 186°
2026-05-06 19:21 49.62416 8.52063 13707 ft 350 kts 185°
2026-05-06 19:22 49.59981 8.51746 14288 ft 353 kts 186°
2026-05-06 19:22 49.57525 8.51426 14907 ft 355 kts 186°
2026-05-06 19:22 49.55058 8.51102 15533 ft 357 kts 186°
2026-05-06 19:22 49.52581 8.50773 16144 ft 359 kts 186°
2026-05-06 19:23 49.50082 8.50443 16765 ft 361 kts 185°
2026-05-06 19:23 49.47566 8.50114 17323 ft 365 kts 185°
2026-05-06 19:23 49.45030 8.49783 17942 ft 366 kts 185°
2026-05-06 19:23 49.42478 8.49448 18458 ft 370 kts 185°
2026-05-06 19:24 49.39909 8.49112 18963 ft 372 kts 185°
2026-05-06 19:24 49.37355 8.48779 19455 ft 375 kts 185°
2026-05-06 19:24 49.34747 8.48439 19955 ft 377 kts 185°
2026-05-06 19:24 49.32093 8.48095 20454 ft 380 kts 185°
2026-05-06 19:25 49.29483 8.47756 20937 ft 382 kts 185°
2026-05-06 19:25 49.26826 8.47410 21414 ft 384 kts 185°
2026-05-06 19:25 49.24153 8.47061 21900 ft 387 kts 185°
2026-05-06 19:25 49.21461 8.46709 22377 ft 389 kts 184°
2026-05-06 19:26 49.18789 8.46362 22773 ft 393 kts 184°
2026-05-06 19:26 49.16050 8.46008 23206 ft 396 kts 184°
2026-05-06 19:26 49.13287 8.45652 23629 ft 398 kts 184°
2026-05-06 19:26 49.10532 8.45300 24048 ft 400 kts 184°
2026-05-06 19:27 49.07753 8.44942 24428 ft 402 kts 184°
2026-05-06 19:27 49.04982 8.44289 24805 ft 405 kts 192°
2026-05-06 19:27 49.02222 8.43312 25172 ft 408 kts 191°
2026-05-06 19:27 48.99456 8.42336 25570 ft 410 kts 192°
2026-05-06 19:28 48.96669 8.41361 25932 ft 412 kts 192°
2026-05-06 19:28 48.93857 8.40386 26281 ft 415 kts 192°
2026-05-06 19:28 48.91069 8.39420 26627 ft 418 kts 192°
2026-05-06 19:28 48.88226 8.38437 27001 ft 420 kts 192°
2026-05-06 19:29 48.85371 8.37451 27409 ft 421 kts 192°
2026-05-06 19:29 48.82508 8.36464 27755 ft 424 kts 191°
2026-05-06 19:29 48.79624 8.35469 28080 ft 427 kts 192°
2026-05-06 19:29 48.76731 8.34463 28504 ft 427 kts 193°
2026-05-06 19:30 48.73840 8.33419 28963 ft 426 kts 193°
2026-05-06 19:30 48.70957 8.32354 29364 ft 427 kts 193°
2026-05-06 19:30 48.68061 8.31277 29671 ft 431 kts 193°
2026-05-06 19:30 48.65186 8.30211 30039 ft 431 kts 193°
2026-05-06 19:31 48.62279 8.29144 30468 ft 428 kts 193°
2026-05-06 19:31 48.59378 8.28088 30761 ft 429 kts 193°
2026-05-06 19:31 48.53646 8.26017 30871 ft 409 kts 193°
2026-05-06 19:32 48.48152 8.24819 30887 ft 397 kts 179°
2026-05-06 19:32 48.42713 8.25895 30893 ft 398 kts 171°
2026-05-06 19:33 48.37246 8.27236 30892 ft 397 kts 171°
2026-05-06 19:33 48.31793 8.28562 30897 ft 397 kts 172°
2026-05-06 19:34 48.26331 8.29884 30896 ft 397 kts 172°
2026-05-06 19:34 48.20871 8.31198 30892 ft 397 kts 172°
2026-05-06 19:35 48.15431 8.32158 30899 ft 396 kts 180°
2026-05-06 19:35 48.09918 8.32228 30915 ft 395 kts 180°
2026-05-06 19:36 48.04427 8.32310 30919 ft 394 kts 180°
2026-05-06 19:36 47.98947 8.32388 30919 ft 394 kts 180°
2026-05-06 19:37 47.93471 8.32461 30918 ft 393 kts 180°
2026-05-06 19:37 47.88047 8.32543 30933 ft 392 kts 181°
2026-05-06 19:38 47.82595 8.32617 30938 ft 391 kts 181°
2026-05-06 19:38 47.77152 8.32689 30934 ft 391 kts 181°
2026-05-06 19:39 47.71716 8.32756 30937 ft 391 kts 181°
2026-05-06 19:39 47.66325 8.32838 30941 ft 390 kts 181°
2026-05-06 19:40 47.60907 8.32915 30941 ft 389 kts 181°
2026-05-06 19:40 47.55500 8.32988 30944 ft 388 kts 181°
2026-05-06 19:41 47.50097 8.33066 30945 ft 388 kts 181°
2026-05-06 19:41 47.44736 8.33145 30937 ft 388 kts 181°
2026-05-06 19:42 47.39347 8.33224 30932 ft 386 kts 182°
2026-05-06 19:42 47.34051 8.33292 30925 ft 375 kts 182°
2026-05-06 19:43 47.28842 8.33415 30924 ft 374 kts 180°
2026-05-06 19:43 47.23676 8.34046 30925 ft 376 kts 177°
2026-05-06 19:44 47.18479 8.34888 30929 ft 376 kts 177°
2026-05-06 19:44 47.13281 8.35669 30929 ft 376 kts 178°
2026-05-06 19:45 47.08079 8.36386 30947 ft 375 kts 178°
2026-05-06 19:45 47.02921 8.37082 30960 ft 374 kts 179°
2026-05-06 19:46 46.97750 8.37778 30967 ft 373 kts 179°
2026-05-06 19:46 46.92594 8.38474 30962 ft 372 kts 179°
2026-05-06 19:47 46.87447 8.39169 30961 ft 371 kts 179°
2026-05-06 19:47 46.82314 8.39868 30827 ft 368 kts 179°
2026-05-06 19:48 46.79798 8.40211 30573 ft 359 kts 179°
2026-05-06 19:48 46.77354 8.40544 30327 ft 355 kts 179°
2026-05-06 19:48 46.74898 8.40876 30087 ft 353 kts 179°
2026-05-06 19:48 46.72458 8.41203 29817 ft 351 kts 179°
2026-05-06 19:49 46.70030 8.41528 29517 ft 349 kts 179°
2026-05-06 19:49 46.67615 8.41850 29230 ft 349 kts 179°
2026-05-06 19:49 46.65207 8.42172 28950 ft 347 kts 178°
2026-05-06 19:49 46.62806 8.42494 28667 ft 346 kts 178°
2026-05-06 19:50 46.60409 8.42816 28379 ft 346 kts 178°
2026-05-06 19:50 46.58016 8.43138 28103 ft 345 kts 178°
2026-05-06 19:50 46.55634 8.43457 27864 ft 341 kts 178°
2026-05-06 19:50 46.53340 8.43770 27562 ft 332 kts 177°
2026-05-06 19:51 46.51058 8.44554 26843 ft 342 kts 166°
2026-05-06 19:51 46.48805 8.45671 26316 ft 342 kts 166°
2026-05-06 19:51 46.46559 8.46777 25808 ft 340 kts 166°
2026-05-06 19:51 46.44322 8.47872 25371 ft 336 kts 166°
2026-05-06 19:52 46.42132 8.48946 25002 ft 330 kts 166°
2026-05-06 19:52 46.39967 8.50007 24536 ft 328 kts 165°
2026-05-06 19:52 46.37809 8.51049 24047 ft 326 kts 165°
2026-05-06 19:52 46.35667 8.52093 23599 ft 324 kts 165°
2026-05-06 19:53 46.33570 8.53122 23185 ft 320 kts 165°
2026-05-06 19:53 46.31479 8.54146 22803 ft 315 kts 165°
2026-05-06 19:53 46.29420 8.55150 22442 ft 309 kts 164°
2026-05-06 19:53 46.27401 8.56132 22083 ft 304 kts 165°
2026-05-06 19:54 46.25402 8.57104 21466 ft 306 kts 165°
2026-05-06 19:54 46.23356 8.58092 20739 ft 313 kts 165°
2026-05-06 19:54 46.21289 8.59092 20179 ft 314 kts 165°
2026-05-06 19:54 46.19225 8.60097 19720 ft 312 kts 165°
2026-05-06 19:55 46.17171 8.61098 19256 ft 311 kts 165°
2026-05-06 19:55 46.15126 8.62089 18817 ft 309 kts 165°
2026-05-06 19:55 46.13115 8.63061 18347 ft 308 kts 165°
2026-05-06 19:55 46.11090 8.64043 17955 ft 305 kts 165°
2026-05-06 19:56 46.09068 8.65025 17907 ft 307 kts 165°
2026-05-06 19:56 46.07035 8.66009 17876 ft 310 kts 165°
2026-05-06 19:56 46.04995 8.66993 17597 ft 308 kts 165°
2026-05-06 19:56 46.02958 8.67975 17337 ft 308 kts 165°
2026-05-06 19:57 46.00934 8.68950 17070 ft 306 kts 165°
2026-05-06 19:57 45.98913 8.69922 16805 ft 306 kts 165°
2026-05-06 19:57 45.96904 8.70887 16558 ft 302 kts 165°
2026-05-06 19:57 45.94961 8.71823 16279 ft 295 kts 165°
2026-05-06 19:58 45.93031 8.72757 15931 ft 289 kts 165°
2026-05-06 19:58 45.91136 8.73670 15592 ft 286 kts 165°
2026-05-06 19:58 45.89261 8.74569 15261 ft 282 kts 165°
2026-05-06 19:58 45.87410 8.75456 14932 ft 279 kts 165°
2026-05-06 19:59 45.85575 8.76336 14600 ft 278 kts 165°
2026-05-06 19:59 45.83746 8.77214 14270 ft 277 kts 165°
2026-05-06 19:59 45.81924 8.78090 13956 ft 275 kts 165°
2026-05-06 19:59 45.80092 8.78965 13370 ft 284 kts 165°
2026-05-06 20:00 45.78206 8.79858 12690 ft 292 kts 165°
2026-05-06 20:00 45.76272 8.80780 12194 ft 293 kts 164°
2026-05-06 20:00 45.74347 8.81700 11756 ft 291 kts 164°
2026-05-06 20:00 45.72427 8.82616 11338 ft 290 kts 164°
2026-05-06 20:01 45.70521 8.83528 10909 ft 287 kts 164°
2026-05-06 20:01 45.68636 8.84428 10329 ft 285 kts 164°
2026-05-06 20:01 45.66762 8.85321 9802 ft 281 kts 164°
2026-05-06 20:01 45.64971 8.86175 9526 ft 263 kts 164°
2026-05-06 20:02 45.63260 8.86987 8901 ft 257 kts 164°
2026-05-06 20:02 45.61569 8.87745 8229 ft 253 kts 170°
2026-05-06 20:02 45.59876 8.88207 7567 ft 250 kts 171°
2026-05-06 20:02 45.58178 8.88668 6945 ft 247 kts 171°
2026-05-06 20:03 45.56496 8.89129 6333 ft 245 kts 171°
2026-05-06 20:03 45.54835 8.89582 5693 ft 241 kts 170°
2026-05-06 20:03 45.53192 8.90027 5026 ft 239 kts 170°
2026-05-06 20:03 45.51557 8.90468 4495 ft 239 kts 170°
2026-05-06 20:04 45.49934 8.90908 4193 ft 236 kts 170°
2026-05-06 20:04 45.48349 8.91311 3860 ft 232 kts 176°
2026-05-06 20:04 45.46775 8.90848 3434 ft 232 kts 210°
2026-05-06 20:04 45.45710 8.89306 3253 ft 211 kts 243°
2026-05-06 20:05 45.45241 8.87453 3073 ft 196 kts 252°
2026-05-06 20:05 45.44897 8.85605 2968 ft 191 kts 254°
2026-05-06 20:05 45.44562 8.83779 2965 ft 190 kts 254°
2026-05-06 20:05 45.44442 8.81918 2949 ft 192 kts 282°
2026-05-06 20:06 45.45001 8.80191 2969 ft 194 kts 303°
2026-05-06 20:06 45.45913 8.78777 2965 ft 195 kts 321°
2026-05-06 20:06 45.47111 8.77897 2966 ft 197 kts 346°
2026-05-06 20:06 45.48455 8.77454 2977 ft 198 kts 347°
2026-05-06 20:07 45.49785 8.77030 2950 ft 201 kts 348°
2026-05-06 20:07 45.51132 8.76634 2780 ft 190 kts 349°
2026-05-06 20:07 45.52376 8.76285 2566 ft 174 kts 350°
2026-05-06 20:07 45.53514 8.75971 2332 ft 161 kts 351°
2026-05-06 20:08 45.54574 8.75678 2119 ft 151 kts 352°
2026-05-06 20:08 45.55581 8.75401 1922 ft 145 kts 351°
2026-05-06 20:08 45.56565 8.75131 1764 ft 143 kts 352°
2026-05-06 20:08 45.57533 8.74864 1565 ft 141 kts 351°
2026-05-06 20:09 45.58505 8.74596 1361 ft 143 kts 352°
2026-05-06 20:09 45.59469 8.74323 1212 ft 143 kts 352°
2026-05-06 20:09 45.60438 8.74060 998 ft 141 kts 352°
2026-05-06 20:09 45.61397 8.73796 817 ft 140 kts 353°
2026-05-06 20:10 45.62315 8.73548 743 ft 121 kts 350°
2026-05-06 20:10 45.62867 8.73392 739 ft 40 kts 348°
2026-05-06 20:10 45.63108 8.73286 738 ft 35 kts 330°
2026-05-06 20:10 45.63256 8.73080 740 ft 20 kts 304°
2026-05-06 20:11 45.63336 8.72913 741 ft 21 kts 303°
2026-05-06 20:11 45.63411 8.72726 741 ft 23 kts 281°
2026-05-06 20:11 45.63387 8.72485 741 ft 26 kts 259°
2026-05-06 20:11 45.63353 8.72237 741 ft 23 kts 259°
2026-05-06 20:12 45.63320 8.72012 741 ft 20 kts 248°
2026-05-06 20:12 45.63202 8.71989 741 ft 20 kts 168°
2026-05-06 20:12 45.63062 8.72029 741 ft 21 kts 169°
2026-05-06 20:12 45.62912 8.72069 741 ft 23 kts 169°
2026-05-06 20:13 45.62749 8.72114 741 ft 25 kts 169°
2026-05-06 20:13 45.62576 8.72163 741 ft 26 kts 169°
2026-05-06 20:13 45.62418 8.72205 741 ft 21 kts 172°
2026-05-06 20:13 45.62362 8.72102 741 ft 15 kts 257°
2026-05-06 20:14 45.62342 8.71950 741 ft 16 kts 259°
2026-05-06 20:14 45.62353 8.71842 741 ft 7 kts 322°
2026-05-06 20:14 45.62400 8.71793 741 ft 9 kts 324°
2026-05-06 20:14 45.62412 8.71780 741 ft 0 kts 323°